H1 CPF 2 NER 2020 11 15 9 320 01 glonass105 H2 0705202 9105 32276 2020 11 15 0 0 0 2020 11 18 23 45 0 900 1 1 0 0 0 1 H9 10 0 59168 0.00000 0 -4217902.649 -9516741.164 -23275251.577 10 0 59168 900.00000 0 -1819377.801 -11069171.818 -22894242.639 10 0 59168 1800.00000 0 393804.532 -12756743.567 -22067940.667 10 0 59168 2700.00000 0 2373793.991 -14526279.285 -20812306.680 10 0 59168 3600.00000 0 4083698.291 -16317777.522 -19151674.012 10 0 59168 4500.00000 0 5498886.300 -18066853.124 -17118281.290 10 0 59168 5400.00000 0 6607771.349 -19707383.483 -14751649.001 10 0 59168 6300.00000 0 7412042.158 -21174249.352 -12097811.189 10 0 59168 7200.00000 0 7926332.274 -22406054.581 -9208417.087 10 0 59168 8100.00000 0 8177342.823 -23347709.636 -6139720.215 10 0 59168 9000.00000 0 8202456.699 -23952769.244 -2951475.070 10 0 59168 9900.00000 0 8047904.021 -24185424.691 294236.217 10 0 59168 10800.00000 0 7766558.032 -24022065.966 3534223.418 10 0 59168 11700.00000 0 7415456.377 -23452347.264 6705428.941 10 0 59168 12600.00000 0 7053154.363 -22479710.630 9746164.305 10 0 59168 13500.00000 0 6737023.848 -21121345.721 12597317.179 10 0 59168 14400.00000 0 6520613.388 -19407587.734 15203504.659 10 0 59168 15300.00000 0 6451182.299 -17380779.423 17514149.768 10 0 59168 16200.00000 0 6567513.419 -15093645.688 19484460.237 10 0 59168 17100.00000 0 6898097.117 -12607249.514 21076290.908 10 0 59168 18000.00000 0 7459762.923 -9988615.322 22258873.756 10 0 59168 18900.00000 0 8256816.003 -7308119.174 23009402.448 10 0 59168 19800.00000 0 9280714.283 -4636754.377 23313461.381 10 0 59168 20700.00000 0 10510299.224 -2043385.760 23165292.158 10 0 59168 21600.00000 0 11912570.270 407894.320 22567893.566 10 0 59168 22500.00000 0 13443970.386 2660199.897 21532954.117 10 0 59168 23400.00000 0 15052129.035 4665975.799 20080619.140 10 0 59168 24300.00000 0 16677990.142 6388726.261 18239097.285 10 0 59168 25200.00000 0 18258236.765 7804277.870 16044114.022 10 0 59168 26100.00000 0 19727911.881 8901526.109 13538222.412 10 0 59168 27000.00000 0 21023126.597 9682636.119 10769983.919 10 0 59168 27900.00000 0 22083743.295 10162690.737 7793034.342 10 0 59168 28800.00000 0 22855922.032 10368801.580 4665052.229 10 0 59168 29700.00000 0 23294423.966 10338721.242 1446648.972 10 0 59168 30600.00000 0 23364575.373 10119015.333 -1799798.653 10 0 59168 31500.00000 0 23043809.666 9762871.421 -5011351.295 10 0 59168 32400.00000 0 22322722.226 9327637.198 -8125722.338 10 0 59168 33300.00000 0 21205592.893 8872191.617 -11082482.394 10 0 59168 34200.00000 0 19710353.144 8454259.801 -13824229.660 10 0 59168 35100.00000 0 17867998.012 8127785.120 -16297703.544 10 0 59168 36000.00000 0 15721465.952 7940469.499 -18454819.896 10 0 59168 36900.00000 0 13324032.104 7931586.149 -20253607.669 10 0 59168 37800.00000 0 10737280.685 8130157.610 -21659028.744 10 0 59168 38700.00000 0 8028739.811 8553576.819 -22643664.844 10 0 59168 39600.00000 0 5269276.330 9206730.404 -23188257.959 10 0 59168 40500.00000 0 2530358.221 10081662.470 -23282093.434 10 0 59168 41400.00000 0 -118702.175 11157794.496 -22923217.860 10 0 59168 42300.00000 0 -2613409.767 12402693.586 -22118486.871 10 0 59168 43200.00000 0 -4896542.708 13773358.224 -20883441.270 10 0 59168 44100.00000 0 -6920300.659 15217968.735 -19242013.045 10 0 59168 45000.00000 0 -8648055.783 16678029.764 -17226066.245 10 0 59168 45900.00000 0 -10055633.551 18090815.253 -14874780.933 10 0 59168 46800.00000 0 -11132070.017 19392013.154 -12233891.642 10 0 59168 47700.00000 0 -11879814.246 20518458.211 -9354794.966 10 0 59168 48600.00000 0 -12314368.098 21410837.005 -6293543.722 10 0 59168 49500.00000 0 -12463379.527 22016250.297 -3109747.649 10 0 59168 50400.00000 0 -12365228.839 22290523.464 134597.064 10 0 59168 51300.00000 0 -12067169.119 22200166.505 3376325.626 10 0 59168 52200.00000 0 -11623101.096 21723899.982 6552344.946 10 0 59168 53100.00000 0 -11091078.263 20853681.850 9600870.922 10 0 59168 54000.00000 0 -10530649.468 19595191.568 12462637.497 10 0 59168 54900.00000 0 -10000152.818 17967751.064 15082053.145 10 0 59168 55800.00000 0 -9554076.448 16003686.168 17408281.646 10 0 59168 56700.00000 0 -9240598.344 13747155.791 19396226.123 10 0 59168 57600.00000 0 -9099409.351 11252498.390 21007397.554 10 0 59168 58500.00000 0 -9159910.968 8582165.386 22210651.610 10 0 59168 59400.00000 0 -9439863.320 5804328.022 22982780.599 10 0 59168 60300.00000 0 -9944539.458 2990257.267 23308950.297 10 0 59168 61200.00000 0 -10666420.695 211585.367 23182974.468 10 0 59168 62100.00000 0 -11585445.010 -2462438.047 22607423.009 10 0 59168 63000.00000 0 -12669797.582 -4967582.694 21593562.608 10 0 59168 63900.00000 0 -13877210.000 -7247059.248 20161131.796 10 0 59168 64800.00000 0 -15156713.786 -9253627.169 18337955.108 10 0 59168 65700.00000 0 -16450775.130 -10951303.092 16159403.822 10 0 59168 66600.00000 0 -17697721.955 -12316600.578 13667713.437 10 0 59168 67500.00000 0 -18834362.380 -13339251.359 10911170.523 10 0 59168 68400.00000 0 -19798685.576 -14022379.521 7943183.955 10 0 59168 69300.00000 0 -20532532.397 -14382122.498 4821257.744 10 0 59168 70200.00000 0 -20984124.226 -14446715.659 1605884.598 10 0 59168 71100.00000 0 -21110344.074 -14255079.451 -1640619.110 10 0 59168 72000.00000 0 -20878673.999 -13854968.688 -4855314.835 10 0 59168 72900.00000 0 -20268706.997 -13300761.949 -7975856.992 10 0 59168 73800.00000 0 -19273169.037 -12650984.075 -10941698.451 10 0 59168 74700.00000 0 -17898407.168 -11965666.031 -13695263.028 10 0 59168 75600.00000 0 -16164321.868 -11303653.366 -16183062.373 10 0 59168 76500.00000 0 -14103744.811 -10719976.707 -18356735.542 10 0 59168 77400.00000 0 -11761286.505 -10263395.298 -20173990.952 10 0 59168 78300.00000 0 -9191700.271 -9974217.443 -21599432.386 10 0 59168 79200.00000 0 -6457829.233 -9882490.197 -22605252.851 10 0 59168 80100.00000 0 -3628220.569 -10006635.315 -23171782.543 10 0 59168 81000.00000 0 -774505.146 -10352589.796 -23287879.979 10 0 59168 81900.00000 0 2031349.402 -10913488.296 -22951158.220 10 0 59168 82800.00000 0 4719798.486 -11669901.944 -22168041.171 10 0 59168 83700.00000 0 7226378.891 -12590624.675 -20953648.164 10 0 59168 84600.00000 0 9494155.283 -13633975.060 -19331508.267 10 0 59168 85500.00000 0 11475852.903 -14749559.667 -17333109.079 10 0 59169 0.00000 0 13135587.638 -15880424.243 -14997288.161 10 0 59169 900.00000 0 14450121.072 -16965502.191 -12369478.039 10 0 59169 1800.00000 0 15409588.746 -17942257.061 -9500820.114 10 0 59169 2700.00000 0 16017670.366 -18749406.442 -6447163.652 10 0 59169 3600.00000 0 16291197.047 -19329612.056 -3267970.612 10 0 59169 4500.00000 0 16259211.964 -19632020.679 -25148.098 10 0 59169 5400.00000 0 15961525.951 -19614547.676 3218167.727 10 0 59169 6300.00000 0 15446830.413 -19245805.452 6398851.434 10 0 59169 7200.00000 0 14770448.975 -18506594.463 9455026.311 10 0 59169 8100.00000 0 13991824.595 -17390893.204 12327275.390 10 0 59169 9000.00000 0 13171849.865 -15906305.072 14959801.044 10 0 59169 9900.00000 0 12370154.545 -14073943.284 17301509.993 10 0 59169 10800.00000 0 11642465.716 -11927758.823 19307002.553 10 0 59169 11700.00000 0 11038152.258 -9513339.883 20937447.238 10 0 59169 12600.00000 0 10598057.088 -6886233.439 22161324.405 10 0 59169 13500.00000 0 10352707.824 -4109859.168 22955025.581 10 0 59169 14400.00000 0 10320980.284 -1253102.633 23303298.105 10 0 59169 15300.00000 0 10509269.898 1612312.429 23199527.721 10 0 59169 16200.00000 0 10911204.690 4414564.276 22645854.923 10 0 59169 17100.00000 0 11507910.884 7084473.132 21653123.778 10 0 59169 18000.00000 0 12268819.231 9558128.591 20240664.975 10 0 59169 18900.00000 0 13152977.770 11779297.100 18435917.689 10 0 59169 19800.00000 0 14110815.899 13701511.359 16273897.577 10 0 59169 20700.00000 0 15086285.927 15289756.529 13796520.971 10 0 59169 21600.00000 0 16019292.753 16521684.816 11051797.786 10 0 59169 22500.00000 0 16848310.225 17388309.329 8092908.021 10 0 59169 23400.00000 0 17513074.912 17894149.412 4977179.027 10 0 59169 24300.00000 0 17957244.598 18056822.358 1764982.535 10 0 59169 25200.00000 0 18130910.006 17906099.192 -1481427.914 10 0 59169 26100.00000 0 17992854.141 17482464.469 -4699117.098 10 0 59169 27000.00000 0 17512463.857 16835240.672 -7825683.002 10 0 59169 27900.00000 0 16671212.542 16020356.003 -10800463.224 10 0 59169 28800.00000 0 15463650.531 15097849.306 -13565709.561 10 0 59169 29700.00000 0 13897860.229 14129216.958 -16067708.107 10 0 59169 30600.00000 0 11995355.168 13174713.275 -18257823.125 10 0 59169 31500.00000 0 9790425.450 12290718.012 -20093444.306 10 0 59169 32400.00000 0 7328955.031 11527281.866 -21538818.958 10 0 59169 33300.00000 0 4666758.365 10925953.474 -22565752.809 10 0 59169 34200.00000 0 1867504.155 10517979.763 -23154165.523 10 0 59169 35100.00000 0 -999688.842 10322955.909 -23292489.842 10 0 59169 36000.00000 0 -3862885.142 10347982.388 -22977906.101 10 0 59169 36900.00000 0 -6650086.260 10587365.399 -22216406.963 10 0 59169 37800.00000 0 -9291990.968 11022874.068 -21022690.435 10 0 59169 38700.00000 0 -11724647.565 11624544.425 -19419882.412 10 0 59169 39600.00000 0 -13891887.713 12351996.917 -17439093.401 10 0 59169 40500.00000 0 -15747440.393 13156212.352 -15118817.348 10 0 59169 41400.00000 0 -17256637.635 13981691.517 -12504183.658 10 0 59169 42300.00000 0 -18397640.576 14768907.047 -9646076.807 10 0 59169 43200.00000 0 -19162134.695 15456943.411 -6600140.677 10 0 59169 44100.00000 0 -19555465.450 15986212.526 -3425687.386 10 0 59169 45000.00000 0 -19596209.296 16301128.998 -184532.711 10 0 59169 45900.00000 0 -19315199.251 16352630.577 3060218.254 10 0 59169 46800.00000 0 -18754047.453 16100435.962 6245410.342 10 0 59169 47700.00000 0 -17963228.574 15514943.328 9309077.023 10 0 59169 48600.00000 0 -16999806.697 14578688.506 12191653.328 10 0 59169 49500.00000 0 -15924903.163 13287300.588 14837138.531 10 0 59169 50400.00000 0 -14801013.654 11649914.418 17194185.302 10 0 59169 51300.00000 0 -13689288.643 9689022.520 19217094.090 10 0 59169 52200.00000 0 -12646892.395 7439772.733 20866693.725 10 0 59169 53100.00000 0 -11724551.711 4948741.234 22111091.775 10 0 59169 54000.00000 0 -10964397.066 2272232.282 22926281.192 10 0 59169 54900.00000 0 -10398185.907 -525824.433 23296592.696 10 0 59169 55800.00000 0 -10045981.513 -3376291.529 23214985.402 10 0 59169 56700.00000 0 -9915341.418 -6207456.857 22683171.323 10 0 59169 57600.00000 0 -10001048.057 -8947773.226 21711572.345 10 0 59169 58500.00000 0 -10285391.691 -11528592.349 20319111.258 10 0 59169 59400.00000 0 -10738992.738 -13886781.050 18532841.327 10 0 59169 60300.00000 0 -11322128.433 -15967112.761 16387421.559 10 0 59169 61200.00000 0 -11986507.859 -17724336.516 13924447.648 10 0 59169 62100.00000 0 -12677420.873 -19124839.032 11191650.971 10 0 59169 63000.00000 0 -13336170.978 -20147832.091 8241980.425 10 0 59169 63900.00000 0 -13902690.272 -20786016.802 5132584.168 10 0 59169 64800.00000 0 -14318226.926 -21045697.965 1923710.168 10 0 59169 65700.00000 0 -14527992.403 -20946344.317 -1322453.873 10 0 59169 66600.00000 0 -14483657.081 -20519613.380 -4542979.247 10 0 59169 67500.00000 0 -14145588.958 -19807881.915 -7675410.856 10 0 59169 68400.00000 0 -13484740.658 -18862343.543 -10658974.485 10 0 59169 69300.00000 0 -12484104.362 -17740753.220 -13435753.407 10 0 59169 70200.00000 0 -11139672.209 -16504913.089 -15951811.606 10 0 59169 71100.00000 0 -9460860.159 -15218005.069 -18158241.834 10 0 59169 72000.00000 0 -7470375.734 -13941882.106 -20012118.047 10 0 59169 72900.00000 0 -5203533.139 -12734431.776 -21477333.661 10 0 59169 73800.00000 0 -2707042.319 -11647122.987 -22525309.195 10 0 59169 74700.00000 0 -37320.620 -10722838.985 -23135555.283 10 0 59169 75600.00000 0 2741604.389 -9994087.942 -23296079.793 10 0 59169 76500.00000 0 5560515.112 -9481666.638 -23003630.669 10 0 59169 77400.00000 0 8347647.545 -9193833.885 -22263769.161 10 0 59169 78300.00000 0 11031449.155 -9126028.927 -21090771.312 10 0 59169 79200.00000 0 13543336.753 -9261147.137 -19507358.818 10 0 59169 80100.00000 0 15820339.564 -9570361.822 -17544263.697 10 0 59169 81000.00000 0 17807517.283 -10014457.709 -15239634.567 10 0 59169 81900.00000 0 19460051.967 -10545619.855 -12638295.480 10 0 59169 82800.00000 0 20744925.964 -11109602.149 -9790871.551 10 0 59169 83700.00000 0 21642115.551 -11648183.131 -6752798.419 10 0 59169 84600.00000 0 22145250.232 -12101804.322 -3583235.206 10 0 59169 85500.00000 0 22261710.372 -12412278.265 -343902.962 10 0 59170 0.00000 0 22012159.778 -12525450.350 2902127.740 10 0 59170 900.00000 0 21429533.857 -12393699.979 6091675.666 10 0 59170 1800.00000 0 20557527.684 -11978175.148 9162687.827 10 0 59170 2700.00000 0 19448648.661 -11250662.751 12055454.450 10 0 59170 3600.00000 0 18161918.003 -10195016.976 14713774.591 10 0 59170 4500.00000 0 16760318.985 -8808083.456 17086049.386 10 0 59170 5400.00000 0 15308100.741 -7100080.636 19126281.518 10 0 59170 6300.00000 0 13868051.739 -5094422.022 20794961.806 10 0 59170 7200.00000 0 12498857.840 -2826986.911 22059826.274 10 0 59170 8100.00000 0 11252655.558 -344870.132 22896470.116 10 0 59170 9000.00000 0 10172882.352 2295337.065 23288807.825 10 0 59170 9900.00000 0 9292512.862 5029663.463 23229371.868 10 0 59170 10800.00000 0 8632753.438 7789184.132 22719445.358 10 0 59170 11700.00000 0 8202247.943 10502656.434 21769027.212 10 0 59170 12600.00000 0 7996826.522 13099257.257 20396631.208 10 0 59170 13500.00000 0 7999806.372 15511309.164 18628923.285 10 0 59170 14400.00000 0 8182830.757 17676883.677 16500204.145 10 0 59170 15300.00000 0 8507210.327 19542174.951 14051746.960 10 0 59170 16200.00000 0 8925709.981 21063546.618 11331002.495 10 0 59170 17100.00000 0 9384706.149 22209167.877 8390686.293 10 0 59170 18000.00000 0 9826623.907 22960171.657 5287764.904 10 0 59170 18900.00000 0 10192551.663 23311287.351 2082359.987 10 0 59170 19800.00000 0 10424923.561 23270922.215 -1163409.240 10 0 59170 20700.00000 0 10470156.777 22860688.212 -4386623.264 10 0 59170 21600.00000 0 10281132.460 22114394.195 -7524776.549 10 0 59170 22500.00000 0 9819415.420 21076545.419 -10516985.618 10 0 59170 23400.00000 0 9057118.302 19800413.030 -13305167.609 10 0 59170 24300.00000 0 7978330.677 18345754.114 -15835166.590 10 0 59170 25200.00000 0 6580051.434 16776277.541 -18057805.775 10 0 59170 26100.00000 0 4872583.577 15156961.567 -19929845.133 10 0 59170 27000.00000 0 2879372.851 13551335.412 -21414825.708 10 0 59170 27900.00000 0 636294.778 12018838.575 -22483784.118 10 0 59170 28800.00000 0 -1809582.131 10612368.567 -23115823.027 10 0 59170 29700.00000 0 -4401707.407 9376119.887 -23298526.236 10 0 59170 30600.00000 0 -7076164.342 8343804.921 -23028209.793 10 0 59170 31500.00000 0 -9764103.616 7537331.678 -22310003.669 10 0 59170 32400.00000 0 -12394394.604 6965994.005 -21157761.691 10 0 59170 33300.00000 0 -14896384.611 6626208.549 -19593800.684 10 0 59170 34200.00000 0 -17202651.288 6501809.676 -17648473.127 10 0 59170 35100.00000 0 -19251633.411 6564889.942 -15359580.919 10 0 59170 36000.00000 0 -20990029.914 6777150.495 -12771641.098 10 0 59170 36900.00000 0 -22374866.387 7091704.006 -9935017.559 10 0 59170 37800.00000 0 -23375142.102 7455253.231 -6904935.708 10 0 59170 38700.00000 0 -23972988.253 7810552.083 -3740399.566 10 0 59170 39600.00000 0 -24164288.644 8099043.803 -503033.270 10 0 59170 40500.00000 0 -23958737.095 8263563.136 2744129.558 10 0 59170 41400.00000 0 -23379329.784 8250986.562 5937883.762 10 0 59170 42300.00000 0 -22461314.902 8014716.973 9016092.529 10 0 59170 43200.00000 0 -21250645.160 7516896.354 11918903.915 10 0 59170 44100.00000 0 -19801999.716 6730251.888 14589919.452 10 0 59170 45000.00000 0 -18176460.220 5639496.806 16977291.413 10 0 59170 45900.00000 0 -16438939.950 4242226.460 19034727.314 10 0 59170 46800.00000 0 -14655474.947 2549271.713 20722382.363 10 0 59170 47700.00000 0 -12890491.318 584494.754 22007623.187 10 0 59170 48600.00000 0 -11204163.179 -1615964.030 22865649.019 10 0 59170 49500.00000 0 -9649971.234 -4004956.748 23279959.547 10 0 59170 50400.00000 0 -8272563.067 -6526063.270 23242661.592 10 0 59170 51300.00000 0 -7106003.076 -9115719.178 22754609.970 10 0 59170 52200.00000 0 -6172483.423 -11705648.505 21825380.813 10 0 59170 53100.00000 0 -5481548.065 -14225500.880 20473078.670 10 0 59170 54000.00000 0 -5029860.495 -16605584.649 18723981.554 10 0 59170 54900.00000 0 -4801523.309 -18779583.628 16612030.887 10 0 59170 55800.00000 0 -4768934.995 -20687145.827 14178176.008 10 0 59170 56700.00000 0 -4894147.082 -22276237.740 11469585.444 10 0 59170 57600.00000 0 -5130664.140 -23505167.386 8538739.485 10 0 59170 58500.00000 0 -5425610.829 -24344192.642 5442420.944 10 0 59170 59400.00000 0 -5722174.777 -24776648.514 2240622.836 10 0 59170 60300.00000 0 -5962222.608 -24799546.643 -1004606.615 10 0 59170 61200.00000 0 -6088979.004 -24423622.099 -4230359.777 10 0 59170 62100.00000 0 -6049655.853 -23672825.378 -7374083.530 10 0 59170 63000.00000 0 -5797920.421 -22583280.573 -10374788.141 10 0 59170 63900.00000 0 -5296097.981 -21201752.845 -13174227.726 10 0 59170 64800.00000 0 -4517015.222 -19583688.909 -15718029.585 10 0 59170 65700.00000 0 -3445405.576 -17790911.988 -17956750.487 10 0 59170 66600.00000 0 -2078815.823 -15889067.271 -19846839.329 10 0 59170 67500.00000 0 -427974.024 -13944924.354 -21351487.414 10 0 59170 68400.00000 0 1483398.742 -12023649.157 -22441349.673 10 0 59170 69300.00000 0 3619327.047 -10186159.239 -23095122.556 10 0 59170 70200.00000 0 5932841.463 -8486672.979 -23299967.027 10 0 59170 71100.00000 0 8367709.920 -6970555.073 -23051767.962 10 0 59170 72000.00000 0 10860569.469 -5672548.601 -22355224.292 10 0 59170 72900.00000 0 13343370.869 -4615467.697 -21223767.413 10 0 59170 73800.00000 0 15746034.991 -3809405.678 -19679308.657 10 0 59170 74700.00000 0 17999210.600 -3251491.857 -17751819.934 10 0 59170 75600.00000 0 20037018.489 -2926207.108 -15478755.005 10 0 59170 76500.00000 0 21799667.028 -2806244.548 -12904322.049 10 0 59170 77400.00000 0 23235829.090 -2853878.546 -10078621.486 10 0 59170 78300.00000 0 24304680.243 -3022783.433 -7056665.819 10 0 59170 79200.00000 0 24977512.093 -3260223.975 -3897300.952 10 0 59170 80100.00000 0 25238852.603 -3509523.627 -662050.796 10 0 59170 81000.00000 0 25087046.190 -3712704.612 2586091.377 10 0 59170 81900.00000 0 24534269.414 -3813186.393 5783900.143 10 0 59170 82800.00000 0 23605982.213 -3758426.748 8869158.262 10 0 59170 83700.00000 0 22339838.716 -3502392.227 11781874.881 10 0 59170 84600.00000 0 20784104.617 -3007752.250 14465457.007 10 0 59170 85500.00000 0 18995648.975 -2247703.322 16867810.733 10 0 59171 0.00000 0 17037596.002 -1207345.819 18942350.681 10 0 59171 900.00000 0 14976736.307 115445.410 20648898.465 10 0 59171 1800.00000 0 12880806.712 1709691.932 21954452.836 10 0 59171 2700.00000 0 10815752.952 3551540.057 22833818.211 10 0 59171 3600.00000 0 8843088.627 5605034.860 23270080.215 10 0 59171 4500.00000 0 7017460.459 7823408.896 23254920.348 10 0 59171 5400.00000 0 5384519.724 10150831.480 22788765.003 10 0 59171 6300.00000 0 3979187.007 12524546.271 21880766.972 10 0 59171 7200.00000 0 2824380.750 14877308.717 20548620.593 10 0 59171 8100.00000 0 1930260.653 17140022.887 18818214.590 10 0 59171 9000.00000 0 1294015.623 19244469.079 16723129.397 10 0 59171 9900.00000 0 900203.535 21126009.757 14303988.519 10 0 59171 10800.00000 0 721627.224 22726162.382 11607676.009 10 0 59171 11700.00000 0 720709.059 23994932.949 8686434.463 10 0 59171 12600.00000 0 851305.791 24892813.729 5596860.351 10 0 59171 13500.00000 0 1060887.129 25392362.463 2398815.309 10 0 59171 14400.00000 0 1292986.250 25479297.314 -845726.258 10 0 59171 15300.00000 0 1489819.113 25153061.812 -4073871.446 10 0 59171 16200.00000 0 1594962.124 24426835.906 -7223022.368 10 0 59171 17100.00000 0 1555975.203 23326992.174 -10232085.735 10 0 59171 18000.00000 0 1326859.272 21892019.293 -13042655.187 10 0 59171 18900.00000 0 870243.988 20170957.097 -15600143.588 10 0 59171 19800.00000 0 159212.559 18221407.870 -17854843.360 10 0 59171 20700.00000 0 -821314.409 16107206.337 -19762894.182 10 0 59171 21600.00000 0 -2073695.867 13895845.033 -21287139.204 10 0 59171 22500.00000 0 -3587227.034 11655762.029 -22397853.010 10 0 59171 23400.00000 0 -5338352.260 9453603.871 -23073326.883 10 0 59171 24300.00000 0 -7291427.239 7351577.685 -23300299.684 10 0 59171 25200.00000 0 -9400000.718 5405002.749 -23074225.487 10 0 59171 26100.00000 0 -11608563.878 3660163.744 -22399372.131 10 0 59171 27000.00000 0 -13854695.843 2152555.290 -21288748.098 10 0 59171 27900.00000 0 -16071516.829 905591.122 -19763858.281 10 0 59171 28800.00000 0 -18190347.034 -70168.107 -17854292.661 10 0 59171 29700.00000 0 -20143460.354 -777236.268 -15597155.121 10 0 59171 30600.00000 0 -21866817.552 -1230863.524 -13036342.971 10 0 59171 31500.00000 0 -23302663.816 -1458153.262 -10221690.937 10 0 59171 32400.00000 0 -24401881.079 -1496672.275 -7207996.279 10 0 59171 33300.00000 0 -25125995.573 -1392614.013 -4053944.364 10 0 59171 34200.00000 0 -25448755.490 -1198593.857 -820956.422 10 0 59171 35100.00000 0 -25357211.898 -971171.306 2428017.146 10 0 59171 36000.00000 0 -24852257.250 -768205.589 5629733.201 10 0 59171 36900.00000 0 -23948598.949 -646158.365 8721896.670 10 0 59171 37800.00000 0 -22674169.661 -657459.227 11644380.409 10 0 59171 38700.00000 0 -21068999.983 -848046.833 14340399.486 10 0 59171 39600.00000 0 -19183601.899 -1255190.603 16757616.309 10 0 59171 40500.00000 0 -17076931.983 -1905685.650 18849155.000 10 0 59171 41400.00000 0 -14814020.661 -2814497.430 20574505.496 10 0 59171 42300.00000 0 -12463367.544 -3983913.177 21900300.445 10 0 59171 43200.00000 0 -10094211.976 -5403235.715 22800950.809 10 0 59171 44100.00000 0 -7773792.527 -7049032.304 23259129.066 10 0 59171 45000.00000 0 -5564709.085 -8885927.943 23266091.895 10 0 59171 45900.00000 0 -3522496.193 -10867909.964 22821837.376 10 0 59171 46800.00000 0 -1693507.087 -12940089.714 21935094.695 10 0 59171 47700.00000 0 -113194.706 -15040848.224 20623147.386 10 0 59171 48600.00000 0 1195140.793 -17104277.151 18911493.973 10 0 59171 49500.00000 0 2221087.861 -19062814.178 16833352.707 10 0 59171 50400.00000 0 2967313.824 -20849963.966 14429019.799 10 0 59171 51300.00000 0 3449203.316 -22402992.288 11745093.102 10 0 59171 52200.00000 0 3693961.298 -23665481.904 8833575.575 10 0 59171 53100.00000 0 3739219.143 -24589644.219 5750875.214 10 0 59171 54000.00000 0 3631202.937 -25138290.728 2556719.991 10 0 59171 54900.00000 0 3422541.290 -25286382.040 -686991.916 10 0 59171 55800.00000 0 3169805.001 -25022089.629 -3917384.844 10 0 59171 56700.00000 0 2930882.295 -24347325.494 -7071818.732 10 0 59171 57600.00000 0 2762300.275 -23277716.927 -10089099.416 10 0 59171 58500.00000 0 2716605.716 -21842026.601 -12910662.785 10 0 59171 59400.00000 0 2839915.998 -20081041.297 -15481710.007 10 0 59171 60300.00000 0 3169744.064 -18045974.639 -17752271.837 10 0 59171 61200.00000 0 3733189.962 -15796449.641 -19678181.265 10 0 59171 62100.00000 0 4545576.345 -13398144.327 -21221935.578 10 0 59171 63000.00000 0 5609586.868 -10920197.802 -22353430.960 10 0 59171 63900.00000 0 6914945.430 -8432484.339 -23050555.064 10 0 59171 64800.00000 0 8438651.617 -6002868.524 -23299625.733 10 0 59171 65700.00000 0 10145764.459 -3694555.495 -23095666.855 10 0 59171 66600.00000 0 11990703.434 -1563646.534 -22442515.355 10 0 59171 67500.00000 0 13919013.905 342998.221 -21352756.548 10 0 59171 68400.00000 0 15869524.354 1989500.827 -19847488.257 10 0 59171 69300.00000 0 17776805.928 3352237.676 -17955917.511 10 0 59171 70200.00000 0 19573831.697 4420589.698 -15714796.940 10 0 59171 71100.00000 0 21194724.131 5197139.562 -13167711.230 10 0 59171 72000.00000 0 22577475.051 5697308.123 -10364227.284 10 0 59171 72900.00000 0 23666523.116 5948446.266 -7358924.636 10 0 59171 73800.00000 0 24415079.612 5988421.579 -4210325.321 10 0 59171 74700.00000 0 24787103.728 5863760.813 -979744.842 10 0 59171 75600.00000 0 24758843.383 5627428.281 2269912.453 10 0 59171 76500.00000 0 24319876.136 5336335.889 5475388.942 10 0 59171 77400.00000 0 23473606.086 5048691.891 8574314.893 10 0 59171 78300.00000 0 22237195.967 4821302.261 11506429.895 10 0 59171 79200.00000 0 20640937.731 4706940.305 14214759.887 10 0 59171 80100.00000 0 18727088.794 4751896.875 16646726.150 10 0 59171 81000.00000 0 16548223.641 4993815.418 18755164.528 10 0 59171 81900.00000 0 14165170.685 5459903.641 20499235.318 10 0 59171 82800.00000 0 11644621.427 6165597.137 21845206.689 10 0 59171 83700.00000 0 9056512.152 7113731.011 22767097.444 10 0 59171 84600.00000 0 6471287.302 8294253.950 23247167.859 10 0 59171 85500.00000 0 3957158.067 9684496.333 23276250.332 99